DECAYED
Showing default

PIONEER-03, 63224 (Decayed)

Orbit data source: Space-Track

PIONEER-03, 63224 was a payload satellite owned by Varda Space (US) in SSO that was launched on Sat, 15 Mar 2025 UTC via an FALCON 9 launch vehicle from the Air Force Western Test Range (AFWTR). Payload-class satellites include a variety of spacecraft equipped with specific instruments for various scientific and technological missions. These include communications satellites like Starlink; space stations such as the ISS; scientific satellites like the Hubble; Earth observation satellites from companies like Planet Labs, Umbra, and HawkEye 360; GPS; miniature CubeSats for education and research; and military/defense satellites.

Loading next visibility...
Identifier
63224, 2025-052Q
Orbit
Decayed
Country
Flag of USUS
Related business
Manufacturer
Rocket Lab
Mission
Decayed Commercial Technology
Bus & Motor
RL PIONEER, HYPERC
Mass
300 kg wet, 55 kg dry
Launch date (UTC)
2025-03-15 (1 year ago)
Launch vehicle
FALCON 9
Launch site
Air Force Western Test Range (AFWTR)
Object type
Payload
Rocket body
Debris
Shape & HBR
Box + Trunc Cone + 2 Pan, 1.1 m
Radar Cross Section
2.380 m², Large (>1 m²)

Expand to show TLE details & history
Last TLE update: 1 year ago

TLE from 1 year ago
0 PIONEER-03
1 63224U 25052Q   25133.88102544  .00035013  00000-0  64585-3 0  9990
2 63224  97.4395  28.1511 0421383  16.8232 344.6482 14.88530580  9188
Epoch: 2025-05-13T21:08Z
TLE epoch observation values (Epoch: 2025-05-13T21:08:40.598Z)
Latitude
0.00002°
Longitude
-160.89146°
Altitude
322.782 km
Speed
7.869 km/s
True Right ascension
01h 52m 36s
True Declination
0° 00' 00"
Sunlit
Object was in daylight at epoch
Visualization orbit readout
Latitude
Unknown
Longitude
Unknown
Altitude
Unknown
Speed
Unknown
Apparent Right ascension
Unknown
Apparent Declination
Unknown
Sunlit
N/A
Visualization observer readout
Local Sidereal Time
21:47:26
Azimuth
Unknown
Elevation
Unknown
Doppler factor
Unknown
Orbital elements
Apogee altitude
893.554 km
Perigee altitude
305.5 km
Semi-major axis
6,977.664 km
Eccentricity
0.04214
Inclination
97.4395°
RAAN
28.1511°
Arg. of periapsis
16.8232°
True anomaly
343.3017°
Mean anomaly
344.6482°
Eccentric anomaly
343.98199°
Mean motion
3.72373 °/min
Orbital period
96.68 mins
BSTAR
0.00064585
Loading maneuver chart data...
Computing Atmospheric mass density...
Loading historical data...
Loading historical data...
Loading historical data...
Loading historical data...
Loading historical data...
Loading historical data...
Loading historical data...

Documentation

Showing up to 5 results
|